| time (UTC) | temp F | wind direction | speed knots | gust knots | rain 1hr in | rain 24hr in | rain mn in | humidity % | barometer mb |
| 20260507014501 | 57 | 303 | 0.9 | 2.6 | 0.00 | 0.00 | 0.00 | 75 | 1018.9 |
| 20260507013501 | 57 | 194 | 0.9 | 1.7 | 0.00 | 0.00 | 0.00 | 75 | 1018.8 |
| 20260507012502 | 57 | 191 | 0.9 | 5.2 | 0.00 | 0.00 | 0.00 | 74 | 1018.9 |
| 20260507011501 | 57 | 301 | 0.9 | 4.3 | 0.00 | 0.00 | 0.00 | 74 | 1018.9 |
| 20260507005502 | 58 | 281 | 0.0 | 1.7 | 0.00 | 0.00 | 0.00 | 74 | 1019.0 |
| 20260507002502 | 59 | 353 | 0.9 | 2.6 | 0.00 | 0.00 | 0.00 | 73 | 1018.8 |
| 20260507001502 | 58 | 34 | 0.9 | 2.6 | 0.00 | 0.00 | 0.00 | 74 | 1018.8 |
| 20260506235502 | 58 | 247 | 0.9 | 4.3 | 0.00 | 0.00 | 0.00 | 75 | 1019.0 |
| 20260506234502 | 57 | 262 | 0.9 | 3.5 | 0.00 | 0.00 | 0.00 | 76 | 1019.0 |
| 20260506233502 | 57 | 173 | 0.9 | 3.5 | 0.00 | 0.00 | 0.00 | 76 | 1019.1 |
| 20260506232502 | 57 | 203 | 0.9 | 1.7 | 0.00 | 0.00 | 0.00 | 77 | 1019.1 |
| 20260506231502 | 57 | 225 | 0.9 | 3.5 | 0.00 | 0.00 | 0.00 | 76 | 1019.2 |
| 20260506230502 | 58 | 233 | 1.7 | 3.5 | 0.00 | 0.00 | 0.00 | 76 | 1019.1 |
| 20260506225502 | 58 | 254 | 0.9 | 5.2 | 0.00 | 0.00 | 0.00 | 75 | 1019.1 |
| 20260506224502 | 58 | 203 | 1.7 | 5.2 | 0.00 | 0.00 | 0.00 | 76 | 1019.1 |
| 20260506223502 | 57 | 1 | 1.7 | 3.5 | 0.00 | 0.00 | 0.00 | 76 | 1019.1 |
| 20260506222502 | 57 | 224 | 1.7 | 7.8 | 0.00 | 0.00 | 0.00 | 76 | 1019.3 |
| 20260506220502 | 57 | 215 | 0.9 | 4.3 | 0.00 | 0.00 | 0.00 | 76 | 1019.4 |
| 20260506215502 | 57 | 162 | 1.7 | 5.2 | 0.00 | 0.00 | 0.00 | 76 | 1019.3 |
| 20260506214502 | 57 | 275 | 1.7 | 4.3 | 0.00 | 0.00 | 0.00 | 76 | 1019.4 |
| 20260506212502 | 57 | 232 | 0.9 | 1.7 | 0.00 | 0.00 | 0.00 | 76 | 1019.3 |
| 20260506210502 | 57 | 240 | 1.7 | 6.1 | 0.00 | 0.00 | 0.00 | 76 | 1019.3 |
| 20260506204502 | 57 | 188 | 0.9 | 8.7 | 0.00 | 0.00 | 0.00 | 76 | 1019.4 |
| 20260506203502 | 57 | 225 | 0.9 | 7.0 | 0.00 | 0.00 | 0.00 | 76 | 1019.2 |
| 20260506202502 | 56 | 238 | 0.9 | 2.6 | 0.00 | 0.00 | 0.00 | 77 | 1019.2 |
| 20260506201502 | 56 | 154 | 0.9 | 3.5 | 0.00 | 0.00 | 0.00 | 77 | 1019.2 |
| 20260506200502 | 56 | 278 | 0.9 | 3.5 | 0.00 | 0.00 | 0.00 | 77 | 1019.2 |
| 20260506195502 | 56 | 269 | 1.7 | 3.5 | 0.00 | 0.00 | 0.00 | 77 | 1019.1 |
| 20260506192503 | 56 | 212 | 0.9 | 3.5 | 0.00 | 0.00 | 0.00 | 78 | 1019.1 |
| 20260506191503 | 55 | 211 | 0.9 | 4.3 | 0.00 | 0.00 | 0.00 | 78 | 1018.9 |
| 20260506185503 | 56 | 240 | 0.0 | 3.5 | 0.00 | 0.00 | 0.00 | 77 | 1019.0 |
| 20260506183503 | 55 | 251 | 0.9 | 4.3 | 0.00 | 0.00 | 0.00 | 77 | 1018.9 |
| 20260506182503 | 56 | 238 | 0.9 | 2.6 | 0.00 | 0.00 | 0.00 | 77 | 1018.8 |
| 20260506180503 | 56 | 267 | 1.7 | 3.5 | 0.00 | 0.00 | 0.00 | 77 | 1018.5 |
| 20260506174503 | 56 | 257 | 1.7 | 5.2 | 0.00 | 0.00 | 0.00 | 77 | 1018.6 |
| 20260506173503 | 56 | 245 | 1.7 | 4.3 | 0.00 | 0.00 | 0.00 | 76 | 1018.3 |
| 20260506172503 | 56 | 187 | 0.9 | 2.6 | 0.00 | 0.00 | 0.00 | 77 | 1018.2 |
| 20260506171503 | 56 | 182 | 0.9 | 2.6 | 0.00 | 0.00 | 0.00 | 77 | 1018.5 |
| 20260506170503 | 55 | 160 | 0.9 | 2.6 | 0.00 | 0.00 | 0.00 | 77 | 1018.5 |
| 20260506165503 | 55 | 226 | 0.9 | 3.5 | 0.00 | 0.00 | 0.00 | 78 | 1018.7 |
| 20260506164503 | 55 | 282 | 0.9 | 2.6 | 0.00 | 0.00 | 0.00 | 78 | 1018.5 |
| 20260506162503 | 55 | 282 | 0.0 | 4.3 | 0.00 | 0.00 | 0.00 | 79 | 1018.4 |
| 20260506161503 | 55 | 217 | 0.9 | 1.7 | 0.00 | 0.00 | 0.00 | 78 | 1018.5 |
| 20260506154503 | 54 | 217 | 0.9 | 3.5 | 0.00 | 0.00 | 0.00 | 79 | 1018.1 |
| 20260506153503 | 54 | 215 | 0.9 | 3.5 | 0.00 | 0.00 | 0.00 | 79 | 1018.2 |
| 20260506152503 | 54 | 259 | 0.0 | 1.7 | 0.00 | 0.00 | 0.00 | 80 | 1018.1 |
| 20260506151503 | 53 | 283 | 0.0 | 2.6 | 0.00 | 0.00 | 0.00 | 80 | 1018.2 |
| 20260506150503 | 53 | 251 | 0.9 | 5.2 | 0.00 | 0.00 | 0.00 | 80 | 1018.2 |
| 20260506145503 | 53 | 253 | 0.9 | 1.7 | 0.00 | 0.00 | 0.00 | 81 | 1018.2 |
| 20260506144503 | 52 | 232 | 0.0 | 1.7 | 0.00 | 0.00 | 0.00 | 81 | 1018.0 |
| 20260506143503 | 52 | 283 | 0.0 | 0.9 | 0.00 | 0.00 | 0.00 | 82 | 1018.0 |
| 20260506142503 | 52 | 237 | 0.9 | 0.9 | 0.00 | 0.00 | 0.00 | 83 | 1017.9 |
| 20260506141553 | 52 | 341 | 0.0 | 3.5 | 0.00 | 0.00 | 0.00 | 83 | 1017.7 |
| 20260506141503 | 52 | 341 | 0.0 | 3.5 | 0.00 | 0.00 | 0.00 | 83 | 1017.7 |
| 20260506135503 | 52 | 304 | 0.9 | 3.5 | 0.00 | 0.00 | 0.00 | 83 | 1017.8 |
| 20260506134504 | 52 | 217 | 0.9 | 2.6 | 0.00 | 0.00 | 0.00 | 83 | 1017.6 |
| 20260506133504 | 52 | 226 | 0.9 | 1.7 | 0.00 | 0.00 | 0.00 | 83 | 1017.6 |
| 20260506132504 | 52 | 225 | 0.0 | 1.7 | 0.00 | 0.00 | 0.00 | 83 | 1017.7 |
| 20260506130504 | 51 | 270 | 0.0 | 1.7 | 0.00 | 0.00 | 0.00 | 83 | 1017.5 |
| 20260506125504 | 51 | 232 | 0.9 | 3.5 | 0.00 | 0.00 | 0.00 | 84 | 1017.4 |
| 20260506124504 | 51 | 246 | 0.9 | 4.3 | 0.00 | 0.00 | 0.00 | 84 | 1017.3 |
| 20260506123504 | 52 | 219 | 0.0 | 2.6 | 0.00 | 0.00 | 0.00 | 84 | 1017.2 |
| 20260506122504 | 52 | 222 | 0.9 | 2.6 | 0.00 | 0.00 | 0.00 | 84 | 1017.2 |
| 20260506121504 | 52 | 243 | 0.9 | 2.6 | 0.00 | 0.00 | 0.00 | 83 | 1017.0 |
| 20260506120504 | 52 | 261 | 0.9 | 5.2 | 0.00 | 0.00 | 0.00 | 84 | 1016.9 |
| 20260506115504 | 52 | 210 | 0.0 | 1.7 | 0.00 | 0.00 | 0.00 | 84 | 1016.9 |
| 20260506114504 | 52 | 265 | 0.9 | 1.7 | 0.00 | 0.00 | 0.00 | 84 | 1016.8 |
| 20260506113504 | 52 | 210 | 0.9 | 2.6 | 0.00 | 0.00 | 0.00 | 84 | 1016.6 |
| 20260506112504 | 52 | 218 | 0.9 | 5.2 | 0.00 | 0.00 | 0.00 | 84 | 1016.6 |
| 20260506111552 | 52 | 206 | 0.9 | 4.3 | 0.00 | 0.00 | 0.00 | 84 | 1016.6 |
| 20260506111504 | 52 | 206 | 0.9 | 4.3 | 0.00 | 0.00 | 0.00 | 84 | 1016.6 |
| 20260506110504 | 52 | 231 | 0.0 | 3.5 | 0.00 | 0.00 | 0.00 | 84 | 1016.6 |
| 20260506105504 | 52 | 233 | 0.9 | 3.5 | 0.00 | 0.00 | 0.00 | 84 | 1016.6 |
| 20260506104504 | 52 | 226 | 0.0 | 1.7 | 0.00 | 0.00 | 0.00 | 84 | 1016.6 |
| 20260506102504 | 52 | 240 | 0.0 | 0.9 | 0.00 | 0.00 | 0.00 | 84 | 1016.5 |
| 20260506101504 | 52 | 236 | 0.0 | 1.7 | 0.00 | 0.00 | 0.00 | 84 | 1016.4 |
| 20260506094504 | 52 | 229 | 0.0 | 1.7 | 0.00 | 0.00 | 0.00 | 85 | 1016.2 |
| 20260506093504 | 51 | 236 | 0.0 | 1.7 | 0.00 | 0.00 | 0.00 | 85 | 1016.2 |
| 20260506091504 | 51 | 233 | 0.0 | 1.7 | 0.00 | 0.00 | 0.00 | 85 | 1016.0 |
| 20260506090504 | 51 | 206 | 0.0 | 3.5 | 0.00 | 0.00 | 0.00 | 86 | 1016.1 |
| 20260506085504 | 51 | 248 | 0.0 | 0.0 | 0.00 | 0.00 | 0.00 | 87 | 1016.1 |
| 20260506084504 | 51 | 244 | 0.0 | 0.0 | 0.00 | 0.00 | 0.00 | 87 | 1016.0 |
| 20260506083504 | 51 | 244 | 0.0 | 0.0 | 0.00 | 0.00 | 0.00 | 88 | 1015.9 |
| 20260506082506 | 51 | 244 | 0.0 | 1.7 | 0.00 | 0.00 | 0.00 | 88 | 1015.7 |
| 20260506073504 | 50 | 234 | 0.0 | 0.0 | 0.00 | 0.00 | 0.00 | 88 | 1015.4 |
| 20260506072505 | 50 | 234 | 0.0 | 0.0 | 0.00 | 0.00 | 0.00 | 87 | 1015.4 |
| 20260506070504 | 50 | 234 | 0.0 | 0.0 | 0.00 | 0.00 | 0.00 | 86 | 1015.2 |
| 20260506062505 | 51 | 234 | 0.0 | 0.0 | 0.00 | 0.00 | 0.00 | 85 | 1014.9 |
| 20260506061505 | 51 | 234 | 0.0 | 0.0 | 0.00 | 0.00 | 0.00 | 85 | 1014.9 |
| 20260506060506 | 52 | 234 | 0.0 | 0.0 | 0.00 | 0.00 | 0.00 | 85 | 1014.7 |
| 20260506050505 | 53 | 234 | 0.0 | 0.0 | 0.00 | 0.00 | 0.00 | 83 | 1014.7 |
| 20260506044505 | 54 | 234 | 0.0 | 0.0 | 0.00 | 0.00 | 0.00 | 82 | 1014.6 |
| 20260506043505 | 55 | 234 | 0.0 | 0.0 | 0.00 | 0.00 | 0.00 | 81 | 1014.6 |
| 20260506042505 | 55 | 234 | 0.0 | 0.0 | 0.00 | 0.00 | 0.00 | 80 | 1014.5 |
| 20260506041507 | 56 | 234 | 0.0 | 0.0 | 0.00 | 0.00 | 0.00 | 80 | 1014.3 |
| 20260506040505 | 56 | 234 | 0.0 | 0.0 | 0.00 | 0.00 | 0.00 | 79 | 1014.2 |
| 20260506034505 | 57 | 234 | 0.0 | 0.0 | 0.00 | 0.00 | 0.00 | 78 | 1013.9 |
| 20260506033505 | 58 | 234 | 0.0 | 0.0 | 0.00 | 0.00 | 0.00 | 77 | 1013.6 |
| 20260506032505 | 59 | 234 | 0.0 | 0.0 | 0.00 | 0.00 | 0.00 | 76 | 1013.7 |
| 20260506030505 | 60 | 234 | 0.0 | 1.7 | 0.00 | 0.00 | 0.00 | 75 | 1013.6 |
| 20260506025505 | 60 | 233 | 0.0 | 1.7 | 0.00 | 0.00 | 0.00 | 74 | 1013.6 |
| 20260506024505 | 61 | 231 | 0.0 | 2.6 | 0.00 | 0.00 | 0.00 | 73 | 1013.6 |
| 20260506023505 | 62 | 224 | 0.0 | 0.9 | 0.00 | 0.00 | 0.00 | 72 | 1013.6 |
| 20260506022505 | 62 | 227 | 0.0 | 1.7 | 0.00 | 0.00 | 0.00 | 72 | 1013.7 |
| 20260506021505 | 63 | 233 | 0.0 | 0.0 | 0.00 | 0.00 | 0.00 | 71 | 1013.6 |
| 20260506020505 | 63 | 265 | 0.0 | 1.7 | 0.00 | 0.00 | 0.00 | 70 | 1013.6 |
| 20260506015505 | 64 | 219 | 0.9 | 2.6 | 0.00 | 0.00 | 0.00 | 70 | 1013.5 |